Find Starlink 31140

NORAD ID: 58767 Int'l Des: 2024-011 Owner: SPXS Country: US Constellation: starlink operational
LEOCIRCULAR

实时位置

正在加载3D地球...

关于 Starlink 31140

正在加载描述...

即将过境

Passes for default location (London). Set your location on the main map for personalized predictions.

高度历史

Loading altitude history...

两行轨道根数

1 58767U 24011C 26123.24631098 .00002249 00000-0 88054-4 0 9994
2 58767 53.1607 120.2294 0001280 98.7460 261.3686 15.30193083128626
Epoch: May 3, 2026 • Age: 11 hours

当前状态

高度 478.1 km
速度 7.63 km/s
星下点 39.51°N, 37.67°E
发射日期 Jan 14, 2024
运行时间 2.2 years
类型 internet

技术详情

分类 Payload
质量 730.00 kg
干质量 700.00 kg
总质量 730.00 kg
长度 0.30 m
直径 4.10 m
跨度 29.00 m
形状 Box + pan
制造商 SPXS
平台类型 Starlink V2M
阶段状态 In Orbit
所有者/国家 SPXS/US

Most Searched